Location: Caltech
(34.1382°N, 118.1253°W)
Time: 04:45:36
(UTC-07:00)

Sapphire - Visible Passes

Search period start: 22 August 2014 00:00
Search period end: 01 September 2014 00:00
Orbit: 787 x 796 km, 67.1° (Epoch: 21 August)

Date Brightness Start Highest point End Pass type
(mag) Time Alt. Az. Time Alt. Az. Time Alt. Az.
22 Aug ? 04:39:43 10° NNW 04:45:09 71° ENE 04:50:32 10° SSE visible
23 Aug ? 04:09:24 10° NNW 04:14:41 50° ENE 04:19:55 10° SE visible
23 Aug ? 20:35:25 10° WNW 20:36:49 11° NW 20:38:13 10° NNW visible
24 Aug ? 03:39:11 10° N 03:44:10 36° ENE 03:49:08 10° SE visible
24 Aug ? 05:22:59 10° NW 05:27:22 26° WSW 05:31:44 10° SSW visible
24 Aug ? 20:03:04 10° W 20:06:07 15° NW 20:09:10 10° NNW visible
25 Aug ? 03:09:04 10° N 03:13:37 27° NE 03:18:08 10° ESE visible
25 Aug ? 04:52:08 10° NW 04:57:03 36° WSW 05:01:57 10° S visible
26 Aug ? 02:39:06 10° N 02:43:01 20° NE 02:45:17 16° E visible
26 Aug ? 04:21:28 10° NW 04:25:40 45° WNW 04:25:40 45° WNW visible
27 Aug ? 02:09:23 10° NNE 02:12:21 15° NE 02:12:21 15° NE visible
27 Aug ? 03:50:55 10° NNW 03:52:56 23° NNW 03:52:56 23° NNW visible
28 Aug ? 01:40:29 10° NNE 01:40:52 10° NE 01:40:52 10° NE visible
28 Aug ? 03:20:29 10° NNW 03:21:30 16° NNW 03:21:30 16° NNW visible
29 Aug ? 02:50:08 10° NNW 02:50:35 12° NNW 02:50:35 12° NNW visible
30 Aug ? 02:19:53 10° N 02:19:57 10° N 02:19:57 10° N visible
